Location: Boullarre
(49.1305°N, 3.0047°E)
Time: 00:01:33
(UTC+00:00)

Cosmos 1340 - Pass Details

Date: 03 February 2023
Orbit: 478 x 482 km, 81.2° (Epoch: 01 April)

Event Time Altitude Azimuth Distance (km) Brightness Sun altitude
Rises 18:33:17 0° 349° (N) 2,554 6.3 -17.4°
Reaches altitude 10° 18:35:23 10° 352° (N) 1,672 5.3 -17.8°
Maximum altitude 18:39:03 74° 78° (ENE) 510 2.4 -18.4°
Drops below altitude 10° 18:42:41 10° 163° (SSE) 1,666 5.1 -19.0°
Enters shadow 18:42:49 - 163° (SSE) 1,715 5.2 -19.0°
